HULIANWANG DIGUI-85

Last updated on Sat Oct 18 2025 00:02:07 GMT+0000 (Coordinated Universal Time)

1 65820U 25220D 25289.89039354 .00000057 00000+0 52001-4 0 9992 2 65820 86.4924 126.3926 0001592 110.6994 249.4332 13.62739671 2657
UTC large
Height (km)
Speed (km/s)
/
Latitude / Longitude
Inclination (degrees)
Orbital Period (minutes)
Azimuth
Elevation
Range (km)
Doppler Factor

Next 0 passes for location: London (51.5072 / 0.1276)

Sorry there are no passes over London.